When you browse on this site, cookies collect data to enhance your experience and personalize the content and advertising you see.
Visit our Privacy Policy to learn more. By continuing to use the site, you agree to this use of cookies and data.
  • In United Kingdom
  • List of Countries
  • For 7 days
  • Water Temperature
  • Satellite Maps
  • Weather Map
  • Weather Widgets
  • user-avatar
    Login

    Hourly Weather Primorsko

    Today, 18 July, Thursday

    Time Temperature Precipitation Wind Pressure Humidity
    00:00 +20°C° 0 mm 1 mps 756 mmHg 74%
    01:00 +19°C° 0 mm 2 mps 756 mmHg 71%
    02:00 +18°C° 0 mm 2 mps 756 mmHg 69%
    03:00 +18°C° 0 mm 2 mps 756 mmHg 69%
    04:00 +18°C° 0 mm 2 mps 756 mmHg 70%
    05:00 +18°C° 0 mm 2 mps 756 mmHg 70%
    06:00 +20°C° 0 mm 2 mps 756 mmHg 65%
    07:00 +22°C° 0 mm 3 mps 757 mmHg 61%
    08:00 +25°C° 0 mm 3 mps 757 mmHg 56%
    09:00 +26°C° 0 mm 3 mps 757 mmHg 52%
    10:00 +28°C° 0 mm 3 mps 757 mmHg 47%
    11:00 +29°C° 0 mm 3 mps 758 mmHg 42%
    12:00 +29°C° 0 mm 3 mps 758 mmHg 41%
    13:00 +30°C° 0 mm 3 mps 758 mmHg 41%
    14:00 +30°C° 0 mm 3 mps 758 mmHg 40%
    15:00 +29°C° 0 mm 3 mps 758 mmHg 41%
    16:00 +29°C° 0 mm 3 mps 758 mmHg 43%
    17:00 +29°C° 0 mm 3 mps 758 mmHg 44%
    18:00 +27°C° 0 mm 2 mps 758 mmHg 54%
    19:00 +24°C° 0 mm 2 mps 758 mmHg 64%
    20:00 +21°C° 0 mm 2 mps 758 mmHg 74%
    21:00 +21°C° 0 mm 1 mps 759 mmHg 75%
    22:00 +21°C° 0 mm 1 mps 759 mmHg 76%
    23:00 +20°C° 0 mm 1 mps 760 mmHg 77%

    Tomorrow, 19 July, Friday

    Time Temperature Precipitation Wind Pressure Humidity
    00:00 +20°C° 0 mm 1 mps 760 mmHg 78%
    01:00 +20°C° 0 mm 1 mps 760 mmHg 78%
    02:00 +20°C° 0 mm 1 mps 760 mmHg 79%
    03:00 +19°C° 0 mm 1 mps 760 mmHg 80%
    04:00 +19°C° 0 mm 1 mps 760 mmHg 82%
    05:00 +19°C° 0 mm 1 mps 760 mmHg 83%
    06:00 +21°C° 0 mm 1 mps 760 mmHg 75%
    07:00 +24°C° 0 mm 1 mps 761 mmHg 68%
    08:00 +26°C° 0 mm 1 mps 761 mmHg 60%
    09:00 +27°C° 0 mm 2 mps 761 mmHg 56%
    10:00 +28°C° 0 mm 2 mps 761 mmHg 51%
    11:00 +29°C° 0 mm 3 mps 761 mmHg 47%
    12:00 +29°C° 0 mm 3 mps 761 mmHg 46%
    13:00 +29°C° 0 mm 4 mps 761 mmHg 45%
    14:00 +30°C° 0 mm 4 mps 761 mmHg 44%
    15:00 +29°C° 0 mm 4 mps 761 mmHg 47%
    16:00 +28°C° 0 mm 4 mps 760 mmHg 49%
    17:00 +28°C° 0 mm 4 mps 760 mmHg 52%
    18:00 +26°C° 0 mm 4 mps 761 mmHg 62%
    19:00 +24°C° 0 mm 3 mps 761 mmHg 72%
    20:00 +21°C° 0 mm 3 mps 761 mmHg 81%
    21:00 +20°C° 0 mm 3 mps 762 mmHg 84%
    22:00 +20°C° 0 mm 2 mps 762 mmHg 86%
    23:00 +19°C° 0 mm 2 mps 762 mmHg 88%

    Day after tomorrow, 20 July, Saturday

    Time Temperature Precipitation Wind Pressure Humidity
    00:00 +19°C° 0 mm 2 mps 762 mmHg 89%
    01:00 +20°C° 0 mm 1 mps 762 mmHg 89%
    02:00 +20°C° 0 mm 1 mps 762 mmHg 89%
    03:00 +19°C° 0 mm 1 mps 761 mmHg 90%
    04:00 +19°C° 0 mm 1 mps 761 mmHg 90%
    05:00 +18°C° 0 mm 2 mps 761 mmHg 91%
    06:00 +20°C° 0 mm 2 mps 762 mmHg 84%
    07:00 +23°C° 0 mm 2 mps 762 mmHg 76%
    08:00 +25°C° 0 mm 3 mps 762 mmHg 69%
    09:00 +27°C° 0 mm 3 mps 762 mmHg 63%
    10:00 +28°C° 0 mm 4 mps 762 mmHg 57%
    11:00 +29°C° 0 mm 4 mps 762 mmHg 50%
    12:00 +29°C° 0 mm 4 mps 762 mmHg 50%
    13:00 +29°C° 0 mm 5 mps 762 mmHg 49%
    14:00 +30°C° 0 mm 5 mps 762 mmHg 48%
    15:00 +29°C° 0 mm 4 mps 762 mmHg 50%
    16:00 +29°C° 0 mm 4 mps 762 mmHg 51%
    17:00 +28°C° 0 mm 4 mps 762 mmHg 53%
    18:00 +26°C° 0 mm 3 mps 762 mmHg 64%
    19:00 +24°C° 0 mm 3 mps 762 mmHg 75%
    20:00 +21°C° 0 mm 2 mps 763 mmHg 86%
    21:00 +21°C° 0 mm 2 mps 763 mmHg 87%
    22:00 +20°C° 0 mm 2 mps 763 mmHg 88%
    23:00 +21°C° 0 mm 1 mps 763 mmHg 88%

    21 July, Sunday

    Time Temperature Precipitation Wind Pressure Humidity
    00:00 +21°C° 0 mm 1 mps 763 mmHg 89%
    01:00 +20°C° 0 mm 1 mps 763 mmHg 89%
    02:00 +20°C° 0 mm 1 mps 762 mmHg 90%
    03:00 +19°C° 0 mm 2 mps 762 mmHg 90%
    04:00 +19°C° 0 mm 2 mps 762 mmHg 90%
    05:00 +18°C° 0 mm 2 mps 762 mmHg 90%
    06:00 +21°C° 0 mm 2 mps 762 mmHg 79%
    07:00 +24°C° 0 mm 2 mps 763 mmHg 68%
    08:00 +26°C° 0 mm 2 mps 763 mmHg 57%
    09:00 +28°C° 0 mm 2 mps 763 mmHg 51%
    10:00 +29°C° 0 mm 2 mps 763 mmHg 45%
    11:00 +30°C° 0 mm 3 mps 763 mmHg 39%
    12:00 +30°C° 0 mm 3 mps 763 mmHg 38%
    13:00 +31°C° 0 mm 3 mps 763 mmHg 38%
    14:00 +31°C° 0 mm 3 mps 762 mmHg 37%
    15:00 +31°C° 0 mm 3 mps 762 mmHg 38%
    16:00 +30°C° 0 mm 3 mps 762 mmHg 40%
    17:00 +30°C° 0 mm 3 mps 762 mmHg 41%
    18:00 +27°C° 0 mm 2 mps 762 mmHg 51%
    19:00 +25°C° 0 mm 2 mps 762 mmHg 60%
    20:00 +23°C° 0 mm 1 mps 763 mmHg 70%
    21:00 +22°C° 0 mm 1 mps 763 mmHg 68%
    22:00 +22°C° 0 mm 1 mps 763 mmHg 67%
    23:00 +21°C° 0 mm 1 mps 763 mmHg 66%

    22 July, Monday

    Time Temperature Precipitation Wind Pressure Humidity
    00:00 +21°C° 0 mm 1 mps 763 mmHg 66%
    01:00 +21°C° 0 mm 1 mps 762 mmHg 66%
    02:00 +20°C° 0 mm 2 mps 762 mmHg 66%
    03:00 +20°C° 0 mm 2 mps 762 mmHg 65%
    04:00 +21°C° 0 mm 1 mps 762 mmHg 65%
    05:00 +21°C° 0 mm 1 mps 762 mmHg 65%
    06:00 +23°C° 0 mm 1 mps 762 mmHg 58%
    07:00 +26°C° 0 mm 1 mps 762 mmHg 52%
    08:00 +28°C° 0 mm 1 mps 762 mmHg 45%
    09:00 +30°C° 0 mm 1 mps 762 mmHg 41%
    10:00 +31°C° 0 mm 2 mps 762 mmHg 37%
    11:00 +32°C° 0 mm 2 mps 762 mmHg 33%
    12:00 +32°C° 0 mm 2 mps 762 mmHg 33%
    13:00 +34°C° 0 mm 3 mps 761 mmHg 32%
    14:00 +34°C° 0 mm 3 mps 761 mmHg 31%
    15:00 +33°C° 0 mm 3 mps 761 mmHg 34%
    16:00 +33°C° 0 mm 3 mps 761 mmHg 36%
    17:00 +32°C° 0 mm 4 mps 760 mmHg 38%
    18:00 +29°C° 0 mm 3 mps 760 mmHg 46%
    19:00 +26°C° 0 mm 2 mps 760 mmHg 54%
    20:00 +24°C° 0 mm 1 mps 760 mmHg 62%
    21:00 +24°C° 0 mm 1 mps 760 mmHg 61%
    22:00 +23°C° 0 mm 1 mps 760 mmHg 61%
    23:00 +23°C° 0 mm 1 mps 760 mmHg 60%

    23 July, Tuesday

    Time Temperature Precipitation Wind Pressure Humidity
    00:00 +23°C° 0 mm 1 mps 760 mmHg 61%
    01:00 +22°C° 0 mm 1 mps 760 mmHg 61%
    02:00 +22°C° 0 mm 1 mps 759 mmHg 61%
    03:00 +22°C° 0 mm 1 mps 759 mmHg 60%
    04:00 +22°C° 0 mm 1 mps 759 mmHg 59%
    05:00 +22°C° 0 mm 1 mps 759 mmHg 58%
    06:00 +25°C° 0 mm 1 mps 759 mmHg 52%
    07:00 +27°C° 0 mm 1 mps 759 mmHg 47%
    08:00 +30°C° 0 mm 1 mps 759 mmHg 41%
    09:00 +31°C° 0 mm 1 mps 759 mmHg 38%
    10:00 +32°C° 0 mm 2 mps 759 mmHg 35%
    11:00 +35°C° 0 mm 2 mps 759 mmHg 32%
    12:00 +35°C° 0 mm 3 mps 758 mmHg 33%
    13:00 +35°C° 0 mm 4 mps 758 mmHg 33%
    14:00 +35°C° 0 mm 4 mps 758 mmHg 34%
    15:00 +34°C° 0 mm 4 mps 757 mmHg 36%
    16:00 +34°C° 0 mm 4 mps 757 mmHg 39%
    17:00 +33°C° 0 mm 4 mps 757 mmHg 41%
    18:00 +29°C° 0 mm 3 mps 757 mmHg 52%
    19:00 +27°C° 0 mm 3 mps 758 mmHg 63%
    20:00 +24°C° 0 mm 2 mps 758 mmHg 74%
    21:00 +24°C° 0.1 mm 2 mps 758 mmHg 77%
    22:00 +24°C° 0.1 mm 3 mps 758 mmHg 81%
    23:00 +22°C° 0.1 mm 3 mps 758 mmHg 84%
    Show more